Location: Ambatotampy
(18.8181°S, 47.6186°E)
Time: 00:16:48
(UTC+00:00)

ISS - Pass Details

Date: 21 January 2021
Orbit: 417 x 422 km, 51.6° (Epoch: 25 February)

Event Time Altitude Azimuth Distance (km) Brightness Sun altitude
Exits shadow 02:00:30 - 277° (W) 1,650 -1.4 -7.0°
Reaches altitude 10° 02:01:00 10° 271° (W) 1,502 -1.5 -6.9°
Maximum altitude 02:03:21 18° 227° (SW) 1,131 -1.8 -6.4°
Drops below altitude 10° 02:05:43 10° 182° (S) 1,509 -0.6 -5.9°
Sets 02:08:23 0° 161° (SSE) 2,403 0.8 -5.3°
